DW7601 San Vito IT current weather conditions

sailwx.info

Wind from 132 at 1 knots gusting 5

Air temperature 6.1° C
Dewpoint 1.4° C

Last reported at 2017-Dec-18 01:01 UTC.
Time now 2017-Dec-18 01:38 UTC

Location: N 39°27' E 009°32'.
View on Google Maps.

See reports from other nearby stations

  
Tides and Currents Weather Stations Pressure Air Temp Water Temp Dewpoint Dewpoint Depression Visibility Wind Speed Wind Dir Waves Ship Positions
date/time (UTC)wind fromknots sea level pressurealtimeterstation pressurevisibilityair tempwater tempwave heightnotes
2017-Dec-18 01:01 132 1 gusting 5 6.1
2017-Dec-18 00:51 068 1 gusting 5 6.1
2017-Dec-18 00:41 135 1 gusting 4 6.1
2017-Dec-18 00:31 112 1 gusting 4 6.1
2017-Dec-18 00:21 225 1 gusting 4 6.1
2017-Dec-18 00:11 068 1 gusting 1 6.1
2017-Dec-18 00:01 065 1 gusting 2 6.7
2017-Dec-17 23:51 068 2 gusting 6 6.7
2017-Dec-17 23:41 112 1 gusting 4 6.7
2017-Dec-17 23:31 045 0 gusting 4 6.7
2017-Dec-17 23:21 6.7
2017-Dec-17 23:11 068 1 gusting 1 7.2
2017-Dec-17 23:01 068 1 gusting 4 7.2
2017-Dec-17 22:51 068 1 gusting 4 7.2
2017-Dec-17 22:41 045 1 gusting 2 7.2
2017-Dec-17 22:31 068 2 gusting 4 7.2
2017-Dec-17 22:21 068 1 gusting 2 7.2
2017-Dec-17 22:11 112 0 gusting 2 7.2
2017-Dec-17 22:01 135 1 gusting 2 7.2
2017-Dec-17 21:51 090 1 gusting 4 7.2
2017-Dec-17 21:41 090 1 gusting 4 7.2
2017-Dec-17 21:31 358 7.2
2017-Dec-17 21:21 090 1 gusting 2 7.2
2017-Dec-17 21:11 090 1 gusting 2 7.2
2017-Dec-17 21:01 071 1 gusting 5 7.2
2017-Dec-17 20:51 045 1 gusting 2 7.2
2017-Dec-17 20:41 068 0 gusting 1 7.2
2017-Dec-17 20:31 045 0 gusting 4 7.2
2017-Dec-17 20:21 112 1 gusting 2 7.8
2017-Dec-17 20:11 045 1 gusting 4 7.2
2017-Dec-17 20:01 066 1 gusting 2 7.8
2017-Dec-17 19:51 068 0 gusting 4 7.8
2017-Dec-17 19:41 068 1 gusting 2 7.8
2017-Dec-17 19:31 045 1 gusting 5 7.8
2017-Dec-17 19:21 068 1 gusting 4 7.8
2017-Dec-17 19:11 022 2 gusting 5 7.8
2017-Dec-17 19:01 024 2 gusting 4 7.8
2017-Dec-17 18:51 045 2 gusting 4 7.8
2017-Dec-17 18:41 068 2 gusting 5 7.8
2017-Dec-17 18:31 045 2 gusting 5 7.8
2017-Dec-17 18:21 022 2 gusting 5 7.8
2017-Dec-17 18:11 045 1 gusting 5 7.8
2017-Dec-17 18:01 109 0 gusting 1 7.8
2017-Dec-17 17:51 068 1 gusting 2 7.8
2017-Dec-17 17:41 068 1 gusting 4 7.8
2017-Dec-17 17:31 068 1 gusting 5 8.3
2017-Dec-17 17:21 068 1 gusting 2 8.3
2017-Dec-17 17:11 068 0 gusting 2 8.3
2017-Dec-17 17:01 064 1 gusting 4 8.9
2017-Dec-17 16:51 338 0 gusting 4 8.9
2017-Dec-17 16:41 045 1 gusting 2 9.4
2017-Dec-17 16:31 9.4
2017-Dec-17 16:21 068 1 gusting 6 10.0
2017-Dec-17 16:11 068 0 gusting 6 10.6
2017-Dec-17 16:01 158 11.1
2017-Dec-17 15:51 338 11.1
2017-Dec-17 15:41 338 11.1
2017-Dec-17 15:31 338 11.7
2017-Dec-17 15:21 338 11.7
2017-Dec-17 15:11 338 11.7
2017-Dec-17 15:01 338 12.2
2017-Dec-17 14:51 338 12.2
2017-Dec-17 14:41 338 12.2
2017-Dec-17 14:31 338 12.2
2017-Dec-17 14:21 338 12.2
2017-Dec-17 14:11 338 8.9
2017-Dec-17 14:01 338 8.9
2017-Dec-17 13:51 338 8.9
2017-Dec-17 13:41 338 8.9
2017-Dec-17 13:31 338 8.9
2017-Dec-17 13:21 338 8.9
2017-Dec-17 13:11 338 8.9
2017-Dec-17 13:01 338 8.9
2017-Dec-17 12:51 338 8.9
2017-Dec-17 12:41 338 8.9
2017-Dec-17 12:31 338 8.9
2017-Dec-17 12:21 338 8.9
2017-Dec-17 12:11 338 8.9
2017-Dec-17 12:01 338 8.9
2017-Dec-17 11:51 338 8.9
2017-Dec-17 11:41 338 8.9
2017-Dec-17 11:31 338 8.9
2017-Dec-17 11:21 338 8.9
2017-Dec-17 11:11 338 8.9
2017-Dec-17 11:01 338 8.9
2017-Dec-17 10:51 338 8.9
2017-Dec-17 10:41 338 8.9
2017-Dec-17 10:31 338 8.9
2017-Dec-17 10:21 338 8.9
2017-Dec-17 10:11 338 8.9
2017-Dec-17 10:01 338 8.9
2017-Dec-17 09:51 338 8.9
2017-Dec-17 09:41 338 8.9
2017-Dec-17 09:31 338 8.9
2017-Dec-17 09:21 338 8.9
2017-Dec-17 09:11 338 8.9
2017-Dec-17 09:01 338 8.9
2017-Dec-17 08:51 338 8.9
2017-Dec-17 08:41 338 8.9
2017-Dec-17 08:31 338 8.9
2017-Dec-17 08:21 338 8.9
2017-Dec-17 08:11 338 8.9
2017-Dec-17 08:01 338 8.9
2017-Dec-17 07:51 338 8.9
2017-Dec-17 07:41 338 8.9
2017-Dec-17 07:31 338 8.9
2017-Dec-17 07:21 338 8.9
2017-Dec-17 07:11 338 8.9
2017-Dec-17 07:01 338 8.9
2017-Dec-17 06:51 338 8.9
2017-Dec-17 06:41 338 8.9
2017-Dec-17 06:31 338 8.9
2017-Dec-17 06:21 338 8.9
2017-Dec-17 06:11 338 8.9
2017-Dec-17 06:01 338 8.9
2017-Dec-17 05:51 338 8.9
2017-Dec-17 05:41 338 8.9
2017-Dec-17 05:31 338 8.9
2017-Dec-17 05:21 338 8.9
2017-Dec-17 05:11 338 8.9
2017-Dec-17 05:01 338 8.9
2017-Dec-17 04:51 338 8.9
2017-Dec-17 04:41 338 8.9
2017-Dec-17 04:31 338 8.9
2017-Dec-17 04:21 338 8.9
2017-Dec-17 04:11 338 8.9
2017-Dec-17 04:01 338 8.9
2017-Dec-17 03:51 338 8.9
2017-Dec-17 03:41 338 8.9
2017-Dec-17 03:31 338 8.9
2017-Dec-17 03:21 338 8.9
2017-Dec-17 03:11 338 8.9
2017-Dec-17 03:01 338 8.9
2017-Dec-17 02:51 338 8.9
2017-Dec-17 02:41 338 9.4
2017-Dec-17 02:31 338 9.4
2017-Dec-17 02:21 338 9.4
2017-Dec-17 02:11 338 9.4
2017-Dec-17 02:01 338 9.4
2017-Dec-17 01:51 338 9.4
2017-Dec-17 01:41 338 9.4
2017-Dec-17 01:31 338 8.9
2017-Dec-17 01:21 338 8.9
2017-Dec-17 01:11 338 8.3
2017-Dec-17 01:01 338 8.3
2017-Dec-17 00:51 338 8.9
2017-Dec-17 00:41 338 8.9
2017-Dec-17 00:31 338 8.9
2017-Dec-17 00:21 338 8.9
2017-Dec-17 00:11 338 9.4
2017-Dec-17 00:01 338 9.4
2017-Dec-16 23:51 338 8.9
2017-Dec-16 23:41 338 8.9
2017-Dec-16 23:31 338 8.9
2017-Dec-16 23:21 338 8.9
2017-Dec-16 23:11 338 9.4
2017-Dec-16 23:01 338 9.4
2017-Dec-16 22:51 338 9.4
2017-Dec-16 22:41 338 9.4
2017-Dec-16 22:31 338 9.4
2017-Dec-16 22:21 338 9.4
2017-Dec-16 22:11 338 9.4
2017-Dec-16 22:01 338 9.4
2017-Dec-16 21:51 338 9.4
2017-Dec-16 21:41 338 9.4
2017-Dec-16 21:31 338 9.4
2017-Dec-16 21:21 338 9.4
2017-Dec-16 21:11 338 8.9
2017-Dec-16 21:01 338 8.9
2017-Dec-16 20:51 338 8.9
2017-Dec-16 20:41 338 8.9
2017-Dec-16 20:31 338 8.9
2017-Dec-16 20:21 338 8.9
2017-Dec-16 20:11 338 8.9
2017-Dec-16 20:01 338 8.9
2017-Dec-16 19:51 338 9.4
2017-Dec-16 19:41 338 9.4
2017-Dec-16 19:31 338 9.4
2017-Dec-16 19:21 338 9.4
2017-Dec-16 19:11 338 9.4
2017-Dec-16 19:01 338 9.4
2017-Dec-16 18:51 338 9.4
2017-Dec-16 18:41 338 10.0
2017-Dec-16 18:31 338 10.0
2017-Dec-16 18:21 338 1 gusting 5 10.0
2017-Dec-16 18:11 338 1 gusting 5 10.0
2017-Dec-16 18:01 338 2 gusting 6 10.0
2017-Dec-16 17:51 022 2 gusting 10 10.6
2017-Dec-16 17:41 045 3 gusting 10 10.6
2017-Dec-16 17:31 022 1 gusting 4 10.6
2017-Dec-16 17:21 045 2 gusting 4 10.6
2017-Dec-16 17:11 022 2 gusting 6 10.6
2017-Dec-16 17:01 022 4 gusting 6 10.6
2017-Dec-16 16:51 022 2 gusting 6 11.1
2017-Dec-16 16:41 338 4 gusting 6 11.1
2017-Dec-16 16:31 068 4 gusting 7 11.1
2017-Dec-16 16:21 338 2 gusting 5 11.1
2017-Dec-16 16:11 045 2 gusting 4 11.7
2017-Dec-16 16:01 338 2 gusting 4 11.7
2017-Dec-16 15:51 090 2 gusting 6 11.7
2017-Dec-16 15:41 338 2 gusting 7 12.2
2017-Dec-16 15:31 112 4 gusting 2 12.8
2017-Dec-16 15:21 112 4 gusting 8 12.8
2017-Dec-16 15:11 045 2 gusting 5 12.8
2017-Dec-16 15:01 158 0 gusting 2 13.3
2017-Dec-16 14:51 045 0 gusting 2 13.3
2017-Dec-16 14:41 022 1 gusting 5 13.3
2017-Dec-16 14:31 315 1 gusting 2 12.8
2017-Dec-16 14:21 12.8
2017-Dec-16 14:11 315 3 gusting 6 13.3
2017-Dec-16 14:01 315 2 gusting 4 13.9
2017-Dec-16 13:51 022 2 gusting 4 14.4
2017-Dec-16 13:41 338 1 gusting 4 15.0
2017-Dec-16 13:31 045 3 gusting 6 15.0
2017-Dec-16 13:21 090 2 gusting 6 15.0
2017-Dec-16 13:11 022 4 gusting 7 15.6
2017-Dec-16 13:01 022 5 gusting 7 15.6
2017-Dec-16 12:51 315 2 gusting 6 16.7
2017-Dec-16 12:41 068 1 gusting 4 16.7
2017-Dec-16 12:31 338 2 gusting 6 15.0
2017-Dec-16 12:21 315 2 gusting 6 15.6
2017-Dec-16 12:11 338 2 gusting 6 16.7
2017-Dec-16 12:01 315 2 gusting 6 16.7
2017-Dec-16 11:51 022 2 gusting 6 17.2
2017-Dec-16 11:41 022 1 gusting 7 17.2
2017-Dec-16 11:31 338 2 gusting 6 17.2
2017-Dec-16 11:21 315 1 gusting 6 17.2
2017-Dec-16 11:11 292 2 gusting 6 16.7
2017-Dec-16 11:01 338 1 gusting 1 16.1
2017-Dec-16 10:51 315 1 gusting 4 13.3
2017-Dec-16 10:41 270 2 gusting 6 12.8
2017-Dec-16 10:31 180 2 gusting 7 12.8
2017-Dec-16 10:21 022 1 gusting 7 13.3
2017-Dec-16 10:11 022 2 gusting 6 13.9
2017-Dec-16 10:01 338 2 gusting 6 13.9
2017-Dec-16 09:51 270 2 gusting 6 13.9
2017-Dec-16 09:41 248 1 gusting 4 13.3
2017-Dec-16 09:31 068 1 gusting 0 12.2
2017-Dec-16 09:21 068 1 gusting 2 12.2
2017-Dec-16 09:11 068 1 gusting 6 12.2
2017-Dec-16 09:01 270 2 gusting 6 12.2
2017-Dec-16 08:51 338 0 gusting 6 13.3
2017-Dec-16 08:41 112 13.3
2017-Dec-16 08:31 135 12.2
2017-Dec-16 08:21 135 11.1
2017-Dec-16 08:11 158 10.0
2017-Dec-16 08:01 158 10.0
2017-Dec-16 07:51 9.4
2017-Dec-16 07:41 248 9.4
2017-Dec-16 07:31 180 9.4
2017-Dec-16 07:21 135 9.4
2017-Dec-16 07:11 135 10.0
2017-Dec-16 07:01 135 10.0
2017-Dec-16 06:51 123 1 gusting 2 10.0
2017-Dec-16 06:41 068 1 gusting 2 10.6
2017-Dec-16 06:31 068 0 gusting 1 10.6
2017-Dec-16 06:21 032 0 gusting 2 10.6
2017-Dec-16 06:11 062 0 gusting 4 10.6
2017-Dec-16 06:01 045 1 gusting 1 10.6
2017-Dec-16 05:51 045 1 gusting 4 10.6
2017-Dec-16 05:41 007 1 gusting 4 10.6
2017-Dec-16 05:31 045 2 gusting 5 10.6
2017-Dec-16 05:21 079 1 gusting 4 10.6
2017-Dec-16 05:11 022 1 gusting 4 10.6
2017-Dec-16 05:01 052 2 gusting 4 10.6
2017-Dec-16 04:51 094 1 gusting 6 11.1
2017-Dec-16 04:41 11.1
2017-Dec-16 04:31 299 1 gusting 4 11.1
2017-Dec-16 04:21 167 1 gusting 4 11.1
2017-Dec-16 04:11 317 1 gusting 4 11.1
2017-Dec-16 04:01 028 1 gusting 6 11.1
2017-Dec-16 03:51 045 1 gusting 6 11.1
2017-Dec-16 03:41 045 1 gusting 4 11.1
2017-Dec-16 03:31 10.6
2017-Dec-16 03:21 090 0 gusting 1 10.6
2017-Dec-16 03:11 007 0 gusting 1 10.6
2017-Dec-16 03:01 087 1 gusting 4 10.6
2017-Dec-16 02:51 063 0 gusting 4 10.6
2017-Dec-16 02:41 028 0 gusting 4 10.6
2017-Dec-16 02:31 059 10.6
2017-Dec-16 02:21 045 10.6
2017-Dec-16 02:11 028 10.6
2017-Dec-16 02:01 292 10.6
2017-Dec-16 01:51 084 0 gusting 2 11.1
2017-Dec-16 01:41 010 1 gusting 4 11.1
2017-Dec-16 01:31 006 1 gusting 6 11.1
2017-Dec-16 01:21 347 1 gusting 5 11.7
2017-Dec-16 01:11 044 1 gusting 2 11.7
2017-Dec-16 01:01 007 1 gusting 5 11.7